{"data":{"norad_id":66723,"epoch":"2026-05-25T03:55:59.286432Z","epoch_age_seconds":68064,"freshness":"FRESH","line1":"1 66723U 25276BK  26145.16388063  .00005819  00000+0  26652-3 0  9995","line2":"2 66723  97.4220 219.4204 0003334  50.7124 309.4407 15.20866281 26198","mean_motion":15.20866281,"eccentricity":0.0003334,"inclination_deg":97.422,"raan_deg":219.4204,"arg_perigee_deg":50.7124,"mean_anomaly_deg":309.4407,"bstar":0.00026652,"rev_number":2619,"period_min":94.682880276179,"perigee_km":500.93205660652,"apogee_km":505.52054965705,"semimajor_km":6881.3633031318,"source":"CELESTRAK","updated_at":"2026-05-25T13:38:13.349668Z"}}